{"data":{"norad_id":31598,"intl_designator":"2007-023A","name":"COSMO-SKYMED 1","alt_names":[],"object_type":"PAYLOAD","status":"ACTIVE","operator":null,"country":"IT","launch_date":"2007-06-08","launch_site_code":"AFWTR","launch_vehicle":null,"mission":null,"orbit_class":"UNKNOWN","rcs_meters":4.682,"size_class":null,"mass_kg":null,"dimensions":null,"purposes":["earth_obs"],"wikipedia_slug":null,"has_3d_model":false,"image_url":null,"decayed_at":null,"tle_current":{"epoch":"2026-09-19T23:09:14.464800Z","epoch_age_seconds":60987,"freshness":"FRESH","line1":"1 31598U 07023A   26262.96475075  .00001793  00000+0  15913-3 0  9990","line2":"2 31598  97.8839  95.6446 0001800  82.8795 277.2631 14.97465005 43976","mean_motion":14.97465005,"eccentricity":0.00018,"inclination_deg":97.8839,"raan_deg":95.6446,"arg_perigee_deg":82.8795,"mean_anomaly_deg":277.2631,"bstar":0.00015913,"rev_number":4397,"period_min":96.162514328674,"perigee_km":573.48058772588,"apogee_km":575.98362060338,"semimajor_km":6952.8691041646,"source":"CELESTRAK","updated_at":"2026-09-20T09:00:33.886383Z"}}}